[[{"header":{"parameterUnit":"m.s-1","parameterCategory":1,"la1":30.2991,"la2":30.254,"lo1":-89.0895,"lo2":-89.0444,"dy":0.0017,"dx":0.0017,"nx":28,"ny":28,"refTime":"2024-05-06T09:00:00:Z","depth":0,"parameterNumber":2,"parameterNumberName":"U-component_of_WINDS"},"data":[0,0,0,0,0,0,0,0,0,0,0,0,0,0,0,0,0,0,0,0,0,0,0,0,0,0,0,0,0,0,0,0,0,0,0,0,0,0,0,0,0,0,0,0,0,0,0,0,0,0,0,0,0,0,0,0,0,0,-0.5818,-0.5818,0,-0.5861,-0.5861,-0.5862,-0.5859,-0.5858,-0.5857,-0.5857,-0.5905,-0.5907,-0.5909,0,0,0,0,0,0,0,0,0,0,0,0,0,-0.5737,-0.5739,-0.5817,-0.5818,-0.5819,-0.5861,-0.5861,-0.5862,-0.5859,-0.5858,-0.5857,-0.5856,-0.5905,-0.5907,-0.5909,0,0,0,0,0,0,0,0,0,0,0,0,0,-0.5775,-0.5739,-0.5817,-0.5822,-0.5823,-0.5861,-0.5861,-0.5862,-0.5859,-0.5858,-0.5857,-0.5856,-0.5904,-0.5907,-0.591,-0.5947,0,0,-0.5918,-0.592,0,0,0,0,0,0,0,0,-0.5773,-0.5778,-0.5821,-0.5822,-0.5823,-0.5853,-0.5851,-0.5891,-0.5859,-0.5845,-0.5857,-0.5855,-0.5889,-0.5893,-0.5904,-0.595,-0.5952,-0.5919,-0.592,-0.5922,-0.5923,0,0,0,0,0,0,0,-0.5771,-0.5777,-0.5835,-0.5821,-0.5823,-0.5823,-0.5828,-0.5858,-0.5872,-0.5846,-0.5846,-0.5851,-0.589,-0.5901,-0.5905,-0.5952,-0.5919,-0.5921,-0.5923,-0.5924,-0.6033,-0.6034,0,0,0,0,0,0,-0.5766,-0.5774,-0.5833,-0.5836,-0.5795,-0.5826,-0.5831,-0.5844,-0.5872,-0.5875,-0.5852,-0.5851,-0.5896,-0.5901,-0.5906,-0.5953,-0.5922,-0.5924,-0.5926,-0.6032,-0.6033,-0.6034,0,0,0,0,0,0,-0.5765,-0.5772,-0.5832,-0.5805,-0.5813,-0.5828,-0.5844,-0.5846,-0.5857,-0.5876,-0.5879,-0.5861,-0.5896,-0.5902,-0.5937,-0.5955,-0.5926,-0.5928,-0.603,-0.6032,-0.6034,-0.6046,0,0,0,0,0,0,-0.5762,-0.5771,-0.5784,-0.5805,-0.5814,-0.586,-0.5845,-0.5847,-0.5862,-0.586,-0.5885,-0.5888,-0.5896,-0.5933,-0.594,-0.5958,-0.5931,-0.6029,-0.6031,-0.6033,-0.6044,-0.6048,-0.6052,0,0,0,0,0,-0.5759,-0.5787,-0.5785,-0.5792,-0.5831,-0.5861,-0.5866,-0.5873,-0.5863,-0.5877,-0.589,-0.5888,-0.5952,-0.5936,-0.5944,-0.5964,-0.6028,-0.6031,-0.6033,-0.6043,-0.6047,-0.6051,0,0,0,0,0,0,-0.5768,-0.5789,-0.5788,-0.5822,-0.584,-0.586,-0.5879,-0.5877,-0.5899,-0.5898,-0.5906,-0.5912,-0.5947,-0.5959,-0.5942,-0.6002,-0.5989,-0.5993,-0.5993,-0.5998,-0.6001,-0.5998,-0.5933,0,0,0,0,0,-0.5774,-0.5795,-0.5813,-0.5842,-0.5851,-0.5863,-0.5877,-0.588,-0.5899,-0.5907,-0.5922,-0.5942,-0.5967,-0.5983,-0.6007,-0.6046,-0.6052,-0.6063,-0.6067,-0.607,-0.6074,-0.6097,-0.6102,-0.6043,-0.6043,-0.6043,0,0,-0.5787,-0.5801,-0.5814,-0.5844,-0.5858,-0.5882,-0.587,-0.5895,-0.5913,-0.5911,-0.5945,-0.5957,-0.598,-0.6017,-0.6034,-0.6028,-0.6091,-0.6073,-0.6075,-0.6078,-0.61,-0.6106,-0.6111,-0.6045,-0.6044,-0.6044,0,0,-0.5822,-0.5834,-0.586,-0.5874,-0.5895,-0.5903,-0.5909,-0.593,-0.5938,-0.5971,-0.5971,-0.5993,-0.6035,-0.6052,-0.6066,-0.6108,-0.6108,-0.6116,-0.6135,-0.6157,-0.6162,-0.6166,-0.6182,-0.6188,-0.6119,-0.6119,-0.612,0,-0.5836,-0.5869,-0.5874,-0.5899,-0.5913,-0.5912,-0.5939,-0.5953,-0.5981,-0.5992,-0.5984,-0.6037,-0.6053,-0.6094,-0.6105,-0.6116,-0.6125,-0.6113,-0.616,-0.6165,-0.6169,-0.6185,-0.619,-0.612,-0.612,-0.612,-0.612,0,-0.5885,-0.5909,-0.5928,-0.5953,-0.597,-0.5996,-0.6006,-0.6022,-0.6025,-0.6034,-0.6069,-0.6088,-0.6115,-0.6126,-0.6129,-0.6169,-0.6164,-0.6158,-0.6145,-0.6175,-0.619,-0.6196,-0.6122,-0.6121,-0.6121,-0.6121,0,0,-0.5928,-0.5956,-0.5963,-0.5975,-0.5998,-0.6017,-0.6044,-0.607,-0.6084,-0.6104,-0.6128,-0.6164,-0.6159,-0.6175,-0.618,-0.6199,-0.6233,-0.6191,-0.6192,-0.6199,-0.628,-0.6284,-0.6291,-0.6232,-0.6233,-0.6234,-0.6278,0,-0.5966,-0.6012,-0.6017,-0.6059,-0.6082,-0.6081,-0.6105,-0.6122,-0.6132,-0.6154,-0.6166,-0.6191,-0.6182,-0.6192,-0.6211,-0.6225,-0.6249,-0.6221,-0.6257,-0.6258,-0.6251,-0.6299,-0.6304,-0.6344,-0.6284,-0.6285,-0.6286,0,-0.6017,-0.6036,-0.608,-0.6101,-0.611,-0.6131,-0.6156,-0.6177,-0.6198,-0.6203,-0.6221,-0.6224,-0.6254,-0.6238,-0.6281,-0.6262,-0.6276,-0.6285,-0.6287,-0.6291,-0.6274,-0.6305,-0.6357,-0.6363,-0.6295,-0.6294,-0.6293,0,-0.6044,-0.6082,-0.6113,-0.6124,-0.6148,-0.6163,-0.6175,-0.6194,-0.621,-0.6232,-0.6242,-0.6268,-0.6283,-0.6304,-0.6314,-0.6301,-0.6356,-0.6341,-0.6363,-0.6363,-0.6375,-0.6375,-0.6431,-0.6383,-0.6383,-0.6383,-0.6383,0,-0.6087,-0.6114,-0.6126,-0.6145,-0.6176,-0.6183,-0.6214,-0.6225,-0.6242,-0.6265,-0.6266,-0.6288,-0.63,-0.6324,-0.6332,-0.6367,-0.6373,-0.638,-0.6382,-0.638,-0.638,-0.6391,-0.6389,-0.6385,-0.6384,-0.6384,-0.6384,0,-0.6124,-0.6132,-0.6167,-0.6187,-0.6193,-0.6215,-0.6233,-0.6253,-0.6262,-0.6291,-0.6298,-0.6314,-0.6342,-0.6354,-0.639,-0.6395,-0.6435,-0.6435,-0.6428,-0.6429,-0.645,-0.6449,-0.6517,-0.6527,-0.6471,-0.6472,-0.6472,0,-0.6151,-0.6171,-0.6193,-0.6208,-0.6219,-0.6243,-0.6258,-0.6266,-0.6283,-0.6308,-0.6326,-0.6353,-0.6376,-0.6422,-0.6438,-0.6465,-0.6466,-0.6488,-0.647,-0.6468,-0.6468,-0.6467,-0.647,-0.6492,-0.6492,-0.6493,-0.6493,0,-0.6198,-0.6202,-0.6223,-0.6246,-0.6265,-0.6284,-0.6303,-0.6315,-0.6326,-0.6345,-0.6373,-0.6391,-0.6426,-0.6455,-0.6483,-0.6497,-0.6498,-0.6498,-0.6505,-0.6504,-0.65,-0.6504,-0.6438,-0.6497,-0.6497,-0.6496,-0.6496,-0.6496,-0.6232,-0.625,-0.6269,-0.6293,-0.6308,-0.6325,-0.6345,-0.6357,-0.638,-0.6408,-0.6412,-0.6443,-0.6464,-0.6502,-0.6517,-0.6542,-0.6537,-0.6547,-0.6549,-0.6552,-0.6554,-0.6495,-0.6548,-0.6547,-0.6547,-0.6547,-0.6547,0,-0.628,-0.6292,-0.6314,-0.634,-0.6359,-0.6356,-0.6377,-0.6395,-0.6421,-0.644,-0.6462,-0.6496,-0.6523,-0.6541,-0.657,-0.6587,-0.6588,-0.6594,-0.6593,-0.6597,-0.6556,-0.6548,-0.6593,-0.6593,-0.6593,-0.6593,-0.6593,-0.6593,-0.6308,-0.6339,-0.6345,-0.6385,-0.6397,-0.6426,-0.6438,-0.6455,-0.647,-0.6507,-0.6529,-0.654,-0.656,-0.6589,-0.6615,-0.662,-0.6631,-0.6638,-0.6642,-0.6604,-0.66,-0.6595,-0.6587,-0.664,-0.664,-0.6681,-0.6682,-0.6682]},{"header":{"parameterUnit":"m.s-1","parameterCategory":1,"la1":30.2991,"la2":30.254,"lo1":-89.0895,"lo2":-89.0444,"dy":0.0017,"dx":0.0017,"nx":28,"ny":28,"refTime":"2024-05-06T09:00:00:Z","depth":0,"parameterNumber":3,"parameterNumberName":"V-component_of_WINDS"},"data":[0,0,0,0,0,0,0,0,0,0,0,0,0,0,0,0,0,0,0,0,0,0,0,0,0,0,0,0,0,0,0,0,0,0,0,0,0,0,0,0,0,0,0,0,0,0,0,0,0,0,0,0,0,0,0,0,0,0,3.1522,3.1523,0,3.1566,3.1566,3.1567,3.1524,3.1523,3.1521,3.1519,3.1565,3.1568,3.157,0,0,0,0,0,0,0,0,0,0,0,0,0,3.1403,3.1405,3.1522,3.1523,3.1523,3.1566,3.1566,3.1567,3.1525,3.1523,3.1521,3.1519,3.1564,3.1567,3.1571,0,0,0,0,0,0,0,0,0,0,0,0,0,3.1451,3.1406,3.1522,3.1507,3.1507,3.1565,3.1566,3.1567,3.1525,3.1523,3.152,3.1518,3.1563,3.1567,3.1571,3.1647,0,0,3.1584,3.1586,0,0,0,0,0,0,0,0,3.1448,3.1456,3.1509,3.1509,3.1508,3.1537,3.1541,3.1594,3.1526,3.1518,3.1519,3.1517,3.1558,3.1562,3.1576,3.1649,3.1651,3.1584,3.1587,3.1588,3.159,0,0,0,0,0,0,0,3.1445,3.1453,3.1539,3.151,3.1509,3.1498,3.1503,3.155,3.1552,3.1519,3.1516,3.1521,3.1557,3.1572,3.1577,3.1652,3.1584,3.1588,3.159,3.1592,3.1787,3.179,0,0,0,0,0,0,3.1443,3.1451,3.1538,3.1541,3.1471,3.1503,3.1507,3.153,3.1551,3.1552,3.1523,3.1519,3.1566,3.1572,3.1578,3.1667,3.1588,3.1592,3.1595,3.1785,3.1788,3.1791,0,0,0,0,0,0,3.1441,3.1452,3.1536,3.1495,3.1505,3.1507,3.1533,3.1532,3.1547,3.1554,3.1554,3.1539,3.1564,3.1572,3.163,3.1668,3.1594,3.1598,3.1782,3.1786,3.179,3.1846,0,0,0,0,0,0,3.1438,3.1451,3.148,3.1496,3.1507,3.1587,3.1536,3.1535,3.1554,3.1549,3.1569,3.157,3.1563,3.1624,3.1634,3.1672,3.1601,3.1778,3.1783,3.1788,3.1841,3.1851,3.1861,0,0,0,0,0,3.1434,3.1495,3.1482,3.1492,3.1544,3.159,3.1596,3.1587,3.1558,3.1587,3.1591,3.1569,3.1662,3.163,3.1641,3.1681,3.1776,3.1782,3.1788,3.1836,3.1849,3.186,0,0,0,0,0,0,3.1484,3.1497,3.1482,3.1551,3.1569,3.1583,3.1619,3.1602,3.1629,3.1623,3.1611,3.1616,3.1676,3.1685,3.1648,3.1755,3.1714,3.1723,3.1747,3.176,3.1769,3.1766,3.1605,0,0,0,0,0,3.1503,3.1539,3.1548,3.1608,3.1618,3.1617,3.1637,3.1628,3.1647,3.1655,3.1663,3.1683,3.1716,3.1738,3.177,3.1842,3.1845,3.1875,3.1885,3.1893,3.19,3.1937,3.1951,3.1811,3.1811,3.1811,0,0,3.1543,3.1554,3.1578,3.1618,3.1632,3.1669,3.1624,3.1666,3.1693,3.1661,3.1715,3.1722,3.1743,3.1808,3.1837,3.1816,3.194,3.1901,3.1907,3.191,3.1945,3.1958,3.197,3.1815,3.1814,3.1814,0,0,3.1634,3.1647,3.1697,3.1711,3.1731,3.173,3.1742,3.1758,3.1761,3.1815,3.1791,3.1823,3.1882,3.1897,3.1913,3.2008,3.1988,3.2019,3.2071,3.2107,3.2118,3.2127,3.216,3.2172,3.2026,3.2026,3.2026,0,3.1681,3.1736,3.1725,3.1768,3.1785,3.1757,3.1807,3.1822,3.1852,3.1864,3.1841,3.1913,3.1925,3.1992,3.2015,3.2029,3.2042,3.2016,3.2117,3.2127,3.2136,3.2167,3.2179,3.203,3.2029,3.2029,3.2029,0,3.1792,3.183,3.1868,3.1897,3.1919,3.1965,3.196,3.1984,3.1973,3.1974,3.2029,3.2043,3.2075,3.2091,3.2081,3.2156,3.2143,3.2119,3.2078,3.2153,3.2181,3.2193,3.2035,3.2033,3.2032,3.2031,0,0,3.1916,3.1937,3.1951,3.1963,3.1983,3.2012,3.2057,3.2088,3.2108,3.213,3.2166,3.2216,3.2193,3.221,3.2202,3.2234,3.2307,3.2206,3.2206,3.2223,3.2389,3.2406,3.242,3.2294,3.2297,3.2298,3.2387,0,3.2007,3.2084,3.2074,3.2148,3.2182,3.2156,3.2194,3.2211,3.2213,3.2242,3.2244,3.2279,3.2247,3.2257,3.2288,3.2292,3.234,3.2285,3.2328,3.2329,3.2322,3.2436,3.2454,3.2537,3.2398,3.24,3.2402,0,3.2123,3.2147,3.2224,3.2237,3.2251,3.2286,3.2313,3.2342,3.236,3.2359,3.2378,3.2363,3.2407,3.2366,3.2426,3.2389,3.2406,3.241,3.2413,3.2416,3.2369,3.2441,3.2564,3.2576,3.242,3.2418,3.2417,0,3.2204,3.2256,3.2309,3.232,3.2337,3.2362,3.237,3.2385,3.2404,3.2428,3.2439,3.2469,3.2484,3.2507,3.2501,3.2471,3.2562,3.252,3.2562,3.2562,3.2582,3.2581,3.2709,3.2595,3.2595,3.2594,3.2594,0,3.2306,3.2354,3.2345,3.2377,3.2429,3.2418,3.247,3.2475,3.2488,3.252,3.25,3.253,3.252,3.2551,3.2546,3.2596,3.2604,3.2604,3.2602,3.2605,3.2605,3.2615,3.2609,3.2598,3.2597,3.2596,3.2596,0,3.2406,3.2402,3.2457,3.2468,3.2471,3.2509,3.2519,3.2548,3.2548,3.2589,3.2598,3.2598,3.2632,3.2628,3.2667,3.2664,3.2726,3.2717,3.272,3.2717,3.2759,3.2755,3.2897,3.2915,3.279,3.2792,3.2793,0,3.247,3.2506,3.252,3.254,3.255,3.2582,3.2601,3.259,3.2611,3.2632,3.266,3.2692,3.2717,3.2773,3.2776,3.2806,3.2797,3.2845,3.2802,3.2803,3.2797,3.2794,3.2797,3.2853,3.2855,3.2856,3.2857,0,3.2585,3.2581,3.2608,3.2635,3.2658,3.2679,3.2697,3.2715,3.2706,3.273,3.2764,3.2783,3.2822,3.2854,3.2881,3.289,3.2872,3.2871,3.2882,3.2885,3.2884,3.2884,3.2742,3.2867,3.2866,3.2866,3.2865,3.2865,3.2668,3.2698,3.2712,3.2743,3.2756,3.2773,3.2801,3.2804,3.2832,3.2862,3.2855,3.2893,3.2908,3.2943,3.2954,3.2984,3.2967,3.2983,3.2987,3.2991,3.2995,3.288,3.2989,3.2989,3.2989,3.2989,3.2988,0,3.2781,3.2788,3.2817,3.2843,3.2867,3.2847,3.2866,3.2888,3.2922,3.2937,3.2962,3.3001,3.3031,3.3037,3.3066,3.3089,3.3081,3.3096,3.3094,3.3096,3.301,3.2997,3.3102,3.3102,3.3102,3.3102,3.3102,3.3102,3.2842,3.2891,3.2888,3.2943,3.295,3.2987,3.2999,3.3015,3.3027,3.3071,3.3096,3.3099,3.311,3.314,3.3167,3.3168,3.3179,3.3197,3.3195,3.3114,3.3103,3.3092,3.3079,3.32,3.32,3.3279,3.3279,3.328]}]]